Theta_e
325 324 322 322 322 322 321 319 320 318 320 320 320 319 319 320 321 320 321 321 318 317 317 316 317 319 320 319 319 321 321 321 322 322 323 322 323 323 324 323 320 320
324 323 323 322 322 322 322 320 319 321 321 320 319 317 318 319 321 319 318 318 318 318 318 318 319 319 317 318 317 317 318 318 319 323 316 315 316 317 317 319 318 317
324 322 322 321 320 321 321 321 322 320 319 318 318 318 320 319 319 319 318 317 316 316 316 317 317 317 317 316 315 314 313 313 313 314 314 312 311 312 311 311 310 311
323 323 322 321 321 321 320 319 320 320 318 317 317 319 320 320 317 315 317 319 315 315 315 316 317 316 316 316 314 314 312 313 314 314 313 313 315 315 314 313 313 313
322 322 322 321 320 320 319 319 319 318 317 317 318 318 318 315 314 314 314 313 312 312 313 313 313 314 313 311 310 310 312 312 313 312 312 312 313 314 314 314 313 313
321 322 321 319 318 319 319 318 319 319 318 317 317 318 317 315 314 314 312 311 312 312 312 311 312 312 311 311 310 310 311 312 311 311 312 312 313 314 315 313 311 311
322 322 321 320 319 319 318 317 317 319 317 317 318 316 316 315 315 314 312 312 310 311 310 310 311 310 311 311 310 310 309 310 311 311 311 311 312 312 313 312 312 311
321 323 321 321 320 320 317 316 317 318 318 317 316 316 316 316 314 313 312 311 310 310 310 311 311 310 311 311 310 308 308 313 311 310 310 311 310 310 311 314 311 310
322 322 322 320 319 319 316 315 316 317 317 315 316 315 316 315 313 313 312 310 310 310 309 309 310 310 312 310 310 309 311 311 311 310 310 310 310 310 311 311 310 310
322 322 322 321 319 320 315 315 316 317 318 317 316 314 314 315 314 313 312 312 311 309 310 310 311 312 311 311 312 311 311 311 311 311 311 310 310 310 311 310 309 309
321 321 320 321 320 319 316 316 316 316 317 317 316 313 314 316 312 313 312 312 312 310 310 311 312 311 311 311 312 311 310 310 310 310 310 310 310 311 314 310 309 308
321 320 320 321 321 320 317 317 316 316 316 316 317 314 315 314 311 312 312 312 311 311 311 311 311 311 311 311 312 312 311 311 310 310 311 311 311 312 311 310 309 308
318 318 319 319 321 322 322 319 318 317 316 316 316 316 316 314 310 312 312 312 312 312 311 311 312 311 311 311 311 312 311 311 311 311 311 311 310 312 312 311 311 311
320 320 320 321 321 321 322 320 321 318 315 316 316 315 316 315 314 314 313 312 311 311 312 312 311 311 311 311 311 312 311 311 310 310 311 311 310 311 312 312 312 312
318 320 321 320 320 321 321 321 321 320 320 319 317 315 317 315 315 314 315 312 313 311 311 312 312 312 313 312 311 312 311 312 312 311 311 311 310 311 311 312 312 313
318 318 318 319 319 320 321 321 320 320 319 318 319 317 315 314 314 313 312 312 312 312 312 312 312 313 312 310 310 313 312 313 313 311 311 311 311 310 311 311 314 312
318 319 319 319 318 319 319 320 320 319 317 318 318 316 314 316 318 316 314 314 314 313 312 312 312 311 298 302 303 306 313 312 313 312 311 311 311 310 311 313 312 312
319 319 318 318 317 316 317 318 319 317 317 317 316 315 314 314 317 315 314 313 314 312 310 311 312 309 300 302 301 302 307 313 313 314 314 313 314 313 315 313 313 313
317 317 318 317 317 318 318 317 317 316 316 317 316 315 313 314 316 314 313 313 313 311 311 310 310 306 302 302 301 300 299 304 313 314 315 314 314 313 313 312 312 313
305 307 312 315 316 317 318 317 316 315 314 314 315 314 313 313 314 314 313 312 310 310 310 311 311 307 301 299 299 299 298 302 310 313 313 314 313 313 313 312 310 311
302 302 303 305 306 309 312 313 313 314 316 316 315 313 313 313 312 312 312 311 309 309 309 311 313 305 299 296 295 297 297 298 306 312 314 313 314 314 314 313 313 312
301 300 301 301 303 305 306 306 307 310 311 313 312 312 311 312 311 314 314 313 311 310 310 311 313 304 299 296 296 296 297 303 305 308 311 312 310 314 314 314 314 314
300 300 299 300 302 303 304 304 305 306 306 310 311 311 311 312 314 314 315 314 312 312 312 312 312 306 299 298 297 296 299 305 305 308 309 310 310 312 313 314 315 315
299 299 298 299 300 301 302 302 304 304 305 306 305 305 308 311 314 315 314 315 314 313 314 313 313 309 302 300 298 297 301 308 307 308 307 308 309 310 311 313 314 313
298 299 299 300 300 300 301 301 302 302 303 304 304 304 305 305 307 312 315 315 315 315 314 314 313 311 303 300 299 298 300 306 308 309 307 307 309 309 311 310 309 309
300 300 300 300 300 300 301 300 300 300 300 301 301 303 304 304 304 305 306 311 314 316 316 315 315 314 311 302 300 299 298 305 308 309 308 307 310 310 308 304 304 304
Wind_Speed
5 7 8 7 7 6 6 5 4 4 4 5 7 6 6 5 5 4 4 5 5 4 4 4 4 5 5 4 4 3 3 3 3 3 3 3 4 5 5 5 4 4
4 6 6 6 5 5 5 5 4 5 5 6 6 6 5 5 5 6 6 5 4 3 3 3 4 4 5 5 4 4 3 3 3 2 4 4 4 5 5 5 4 4
4 6 7 6 6 5 6 5 5 6 7 6 6 6 5 5 5 4 5 5 5 4 4 4 5 4 5 5 4 4 3 3 3 2 3 4 4 6 5 6 5 5
4 6 6 6 6 6 5 7 7 7 6 6 6 6 6 4 5 6 5 5 4 4 3 3 4 5 5 4 4 3 3 3 2 3 3 3 4 6 6 6 6 6
4 4 5 5 6 6 6 7 8 7 7 7 6 6 7 6 6 5 5 4 4 4 4 5 5 5 6 5 4 3 2 3 3 4 4 4 3 4 4 7 6 5
3 4 5 6 6 7 6 7 7 7 7 6 7 6 6 6 5 5 5 5 4 4 4 4 5 5 6 5 4 2 2 3 2 3 3 3 4 4 5 5 5 5
3 3 5 5 6 6 6 6 5 7 7 6 5 6 7 6 6 6 6 5 5 4 4 4 5 5 5 5 4 4 4 4 2 3 3 3 4 5 4 4 4 4
3 2 4 5 6 5 6 5 5 6 6 6 6 7 6 7 7 6 5 6 5 5 4 4 5 5 4 6 6 5 5 3 3 3 2 2 3 5 4 4 5 5
3 3 3 4 5 4 5 5 5 5 6 6 5 6 5 6 6 6 6 5 5 5 5 5 4 4 5 6 6 5 5 4 5 4 4 4 5 4 4 4 5 5
4 3 3 4 4 4 5 5 5 5 5 5 5 5 5 4 6 6 6 6 6 6 6 5 4 5 5 5 4 5 7 7 5 5 5 5 5 5 5 5 5 5
2 2 3 2 2 3 5 5 5 5 4 4 4 5 4 5 5 5 5 6 7 6 6 6 6 6 6 4 4 4 6 6 5 5 5 6 6 6 6 5 4 4
1 2 3 2 2 3 5 5 5 5 4 4 5 5 3 5 6 4 5 6 6 6 6 6 6 6 6 5 5 5 5 5 4 4 4 6 7 7 7 6 5 5
9 7 3 8 1 4 4 4 5 5 4 4 3 4 4 4 5 4 4 6 6 6 6 7 6 6 7 7 6 5 6 5 4 4 4 5 5 6 6 6 6 5
5 5 2 4 3 2 3 3 4 4 5 4 4 4 4 4 3 4 3 5 6 6 7 7 6 6 6 7 6 7 7 5 5 4 4 5 5 5 6 5 6 5
2 2 2 3 2 2 2 3 2 3 2 3 3 5 4 3 2 2 1 3 2 4 6 6 7 6 6 6 6 6 6 6 7 6 5 5 5 5 5 5 4 4
4 1 2 0 2 3 3 2 3 2 2 2 3 1 2 3 4 4 3 3 1 3 1 2 4 3 3 13 11 8 6 5 5 6 5 5 6 5 5 5 6 4
4 3 0 2 2 3 4 2 1 2 2 3 3 3 3 3 4 3 3 3 4 4 4 3 1 2 2 5 5 6 7 7 7 6 4 4 5 4 4 4 4 4
4 3 1 0 1 2 2 2 2 1 1 0 2 3 3 3 4 3 3 3 4 4 3 3 3 3 5 4 5 6 4 5 6 7 6 5 5 4 5 4 5 6
3 3 4 1 0 1 3 2 5 1 1 0 0 2 2 1 1 2 2 2 3 3 2 3 3 6 5 6 4 4 6 4 0 3 8 4 7 8 6 5 5 5
7 6 4 2 3 6 7 9 8 5 3 2 0 1 1 1 1 1 1 2 3 3 3 3 4 6 8 7 6 5 5 4 2 1 3 8 9 9 7 6 5 6
10 10 9 6 5 4 3 2 1 3 5 5 4 3 2 2 3 3 3 2 3 3 4 5 6 9 9 9 8 7 4 4 2 3 6 5 6 8 8 8 7 6
10 10 9 9 9 7 6 5 5 4 3 1 3 4 4 3 3 4 5 5 4 4 5 6 7 11 12 11 9 7 5 3 3 3 6 6 5 6 7 8 7 7
10 9 9 9 8 7 7 7 6 7 5 3 2 3 3 4 5 5 6 6 6 6 6 7 7 10 12 12 11 8 5 4 3 3 4 6 7 7 6 6 6 6
8 7 7 8 7 8 8 7 6 6 6 4 4 3 3 3 5 5 4 5 7 7 8 8 8 10 13 13 13 12 7 5 5 5 6 6 6 7 6 6 7 10
6 7 7 7 7 7 6 7 7 7 6 7 7 6 5 4 2 4 6 6 7 8 11 11 8 10 14 15 15 13 8 5 6 5 6 6 6 7 7 6 6 7
8 8 8 8 9 8 8 7 6 7 8 8 8 7 8 8 8 5 4 6 7 7 7 9 9 9 11 16 15 14 13 8 5 6 8 8 7 7 7 5 7 7
Wind_Direction
132 133 137 138 148 155 160 159 165 159 149 133 123 130 123 125 113 84 80 84 91 85 72 56 55 69 84 80 79 83 100 118 116 132 135 132 148 157 167 164 156 152
134 133 130 130 134 142 149 150 152 125 130 124 125 124 120 106 97 105 101 103 89 82 50 26 45 85 90 84 84 84 79 99 125 144 131 131 156 143 150 159 158 146
133 131 133 140 150 145 144 136 115 119 122 129 123 119 117 116 121 106 103 97 95 79 79 82 83 86 87 82 81 89 100 95 101 95 93 89 80 87 105 116 111 122
137 142 140 144 137 136 127 111 111 118 121 121 129 130 124 118 109 111 112 105 99 103 77 50 68 82 85 76 74 82 104 103 121 94 71 49 73 96 98 100 101 97
112 115 134 139 132 127 120 119 128 132 135 138 130 123 118 121 119 117 116 122 124 115 106 105 93 89 92 93 98 80 43 68 66 84 90 95 90 95 97 96 94 86
80 93 132 138 136 128 128 135 140 138 139 137 140 130 131 132 131 131 136 136 136 133 120 108 95 111 118 119 110 91 88 84 79 88 94 104 92 96 99 92 93 89
90 93 133 136 130 131 137 145 138 136 143 146 134 140 143 141 143 147 147 150 146 141 143 136 126 134 135 131 124 133 133 139 136 119 129 127 99 87 92 91 83 86
137 116 133 135 134 130 138 145 138 141 149 140 146 159 153 151 155 157 154 155 150 155 153 150 144 150 135 130 145 149 160 158 171 176 158 111 107 119 95 93 97 88
158 164 134 141 137 121 145 144 142 141 143 144 152 170 160 152 158 157 164 156 147 154 151 151 161 134 135 134 142 138 150 160 172 151 138 139 127 119 115 102 82 83
175 173 144 154 152 141 149 148 144 145 144 142 158 165 164 148 154 155 161 147 154 156 157 160 145 135 133 137 135 132 137 145 147 144 150 140 128 127 115 100 104 87
144 105 102 89 154 131 154 145 145 143 143 147 149 166 170 138 159 154 146 148 154 162 156 151 150 142 139 148 135 137 140 144 150 154 151 147 142 135 128 124 118 124
58 62 58 79 135 142 148 146 146 141 152 149 151 170 161 151 156 153 149 157 160 162 157 157 154 154 156 164 157 148 148 154 165 164 154 152 151 144 142 143 146 155
42 27 351 305 274 125 114 128 147 152 147 154 154 138 133 148 170 151 167 156 168 158 159 161 162 164 167 166 167 160 159 159 173 160 141 151 152 149 151 151 156 161
187 162 220 268 348 335 103 104 110 130 158 154 154 146 144 132 152 146 189 150 185 162 172 163 163 165 174 176 173 169 164 168 177 167 160 147 146 145 151 151 159 164
293 176 130 9 252 206 74 78 88 92 91 104 164 169 156 164 161 148 176 164 166 166 172 170 167 173 175 175 174 172 172 169 177 182 169 164 164 157 158 143 131 130
214 165 110 313 323 25 37 40 41 55 52 66 55 45 129 153 163 197 179 202 175 44 68 157 173 167 174 177 170 174 179 175 179 186 179 174 174 168 169 150 136 129
133 95 48 11 19 19 349 353 13 61 57 58 73 71 69 58 74 69 67 78 99 112 100 101 91 163 73 163 138 182 174 174 175 187 182 171 174 157 147 142 122 135
118 92 69 266 7 0 342 0 321 99 90 32 68 70 33 42 58 91 93 91 87 103 136 165 189 193 125 117 141 142 175 190 181 175 181 174 182 141 136 133 149 149
87 147 187 176 20 7 349 347 304 287 99 88 66 105 85 47 61 91 105 116 119 124 178 235 230 213 207 179 183 155 115 97 335 206 176 148 100 110 129 144 158 130
55 69 79 107 159 182 178 197 200 220 209 183 144 48 87 148 180 172 182 138 148 161 210 245 239 249 237 230 219 199 133 133 125 83 115 123 142 143 154 168 165 145
24 21 25 30 47 42 29 347 330 220 188 188 176 179 189 203 195 187 219 199 172 181 199 234 252 249 243 239 234 224 180 148 155 134 123 149 158 162 158 177 187 186
15 11 10 5 7 15 28 36 23 3 335 260 195 197 195 184 200 188 202 206 197 194 202 235 245 250 250 249 243 231 188 185 179 177 152 160 169 158 165 179 192 192
6 3 358 356 354 7 13 6 4 358 6 15 357 304 268 225 212 198 194 189 193 192 201 227 244 248 248 251 252 241 195 195 189 194 175 161 177 182 180 184 193 203
359 360 356 351 353 358 353 351 351 349 350 355 10 354 310 268 261 253 224 209 196 201 202 206 230 244 239 239 240 234 209 212 201 194 195 177 187 193 192 202 201 201
1 2 1 358 356 351 349 348 345 339 330 341 339 338 326 311 271 240 255 241 218 211 205 204 221 237 239 239 234 231 215 219 213 203 197 186 178 187 187 175 194 211
3 0 358 355 348 344 343 337 331 336 333 330 324 325 320 316 314 297 253 243 251 241 226 213 217 226 233 237 240 234 216 214 210 210 215 203 189 181 178 185 194 204